Weather History for Grants-Milan, NM

Change the Weather History Date:

Monday, November 19, 2012

  Actual Average Record
Temperature  
Mean Temperature 40 °F -  
Max Temperature 61 °F 52 °F 72 °F (2007)
Min Temperature 19 °F 20 °F 5 °F (2014)
Degree Days  
Heating Degree Days 25    
Moisture  
Dew Point 23 °F    
Average Humidity 61    
Maximum Humidity 92    
Minimum Humidity 21    
Precipitation  
Precipitation 0.00 in - - ()
Sea Level Pressure  
Sea Level Pressure 30.36 in    
Wind  
Wind Speed 5 mph (NW)    
Max Wind Speed 9 mph    
Max Gust Speed -    
Visibility 10 miles    
Events      
Averages and records for this station are not official NWS values.
T = Trace of Precipitation, MM = Missing Value Source: NWS Daily Summary

Daily Weather History Graph

Daily Weather History Graph

Search for Another Location

Airport:

Trip Planner

Search our weather history database for the weather conditions in past years. The results will help you decide how hot, cold, wet, or windy it might be!

Date:

Astronomy

Nov. 19, 2012 Rise Set
Actual Time 6:50 AM MST 5:03 PM MST
Civil Twilight 6:23 AM MST 5:30 PM MST
Nautical Twilight 5:52 AM MST 6:01 PM MST
Astronomical Twilight 5:22 AM MST 6:31 PM MST
Moon 12:00 PM MST (11/19) 11:27 PM MST (11/19)
Length of Visible Light 11h 06m
Length of Day
10h 12m
Waxing Crescent, 41% of the Moon is Illuminated
Nov 19
Waxing Crescent
Nov 20
First Quarter
Nov 28
Full
Dec 6
Last Quarter
Dec 13
New

Hourly Weather History & Observations

Time (MST) Temp. Windchill Dew Point Humidity Pressure Visibility Wind Dir Wind Speed Gust Speed Precip Events Conditions
12:15 AM 31.8 °F 25.4 °F 24.8 °F 75% 30.30 in 10.0 mi WNW 6.9 mph - N/A   Clear
12:35 AM 29.8 °F 23.9 °F 24.1 °F 79% 30.30 in 10.0 mi NW 5.8 mph - N/A   Clear
12:55 AM 28.2 °F 23.1 °F 23.5 °F 83% 30.30 in 10.0 mi NW 4.6 mph - N/A   Clear
1:15 AM 26.6 °F 20.0 °F 22.8 °F 86% 30.31 in 10.0 mi WNW 5.8 mph - N/A   Clear
1:35 AM 26.6 °F 19.1 °F 22.5 °F 84% 30.32 in 10.0 mi NNW 6.9 mph - N/A   Clear
1:55 AM 25.7 °F 17.1 °F 21.6 °F 84% 30.32 in 10.0 mi NNW 8.1 mph - N/A   Clear
2:15 AM 27.0 °F 18.7 °F 22.1 °F 82% 30.32 in 10.0 mi NW 8.1 mph - N/A   Clear
2:35 AM 25.9 °F 18.2 °F 21.9 °F 85% 30.33 in 10.0 mi NW 6.9 mph - N/A   Clear
2:55 AM 27.5 °F 20.2 °F 22.8 °F 83% 30.33 in 10.0 mi NW 6.9 mph - N/A   Clear
3:15 AM 24.8 °F 17.9 °F 21.4 °F 87% 30.34 in 10.0 mi NNW 5.8 mph - N/A   Clear
3:35 AM 25.3 °F 16.7 °F 21.7 °F 86% 30.34 in 10.0 mi NW 8.1 mph - N/A   Clear
3:55 AM 26.4 °F 18.0 °F 22.1 °F 84% 30.34 in 10.0 mi WNW 8.1 mph - N/A   Clear
4:15 AM 25.9 °F 20.3 °F 21.7 °F 84% 30.34 in 10.0 mi NW 4.6 mph - N/A   Clear
4:35 AM 24.3 °F 17.3 °F 21.0 °F 87% 30.34 in 10.0 mi NW 5.8 mph - N/A   Clear
4:55 AM 22.8 °F 15.5 °F 20.1 °F 89% 30.34 in 10.0 mi NW 5.8 mph - N/A   Clear
5:15 AM 23.0 °F 14.7 °F 20.3 °F 89% 30.34 in 10.0 mi NNW 6.9 mph - N/A   Clear
5:35 AM 23.7 °F 19.3 °F 20.7 °F 88% 30.34 in 10.0 mi West 3.5 mph - N/A   Clear
5:55 AM 23.2 °F 17.2 °F 20.1 °F 88% 30.35 in 10.0 mi North 4.6 mph - N/A   Clear
6:15 AM 21.6 °F - 18.9 °F 89% 30.36 in 10.0 mi Calm Calm - N/A   Clear
6:35 AM 20.1 °F 12.3 °F 18.1 °F 92% 30.36 in 10.0 mi NW 5.8 mph - N/A   Clear
6:55 AM 19.6 °F 11.7 °F 17.6 °F 92% 30.37 in 10.0 mi NW 5.8 mph - N/A   Clear
7:15 AM 23.0 °F 14.7 °F 20.5 °F 90% 30.37 in 10.0 mi NW 6.9 mph - N/A   Clear
7:35 AM 24.1 °F 16.0 °F 20.8 °F 87% 30.38 in 10.0 mi WNW 6.9 mph - N/A   Clear
7:55 AM 27.3 °F 19.9 °F 22.3 °F 81% 30.38 in 10.0 mi NW 6.9 mph - N/A   Clear
8:15 AM 30.0 °F 23.2 °F 23.9 °F 78% 30.38 in 10.0 mi NW 6.9 mph - N/A   Clear
8:35 AM 32.2 °F 26.7 °F 25.3 °F 76% 30.40 in 10.0 mi NNW 5.8 mph - N/A   Clear
8:55 AM 36.3 °F 31.6 °F 27.3 °F 70% 30.40 in 10.0 mi North 5.8 mph - N/A   Clear
9:15 AM 39.0 °F 36.8 °F 28.9 °F 67% 30.40 in 10.0 mi NNW 3.5 mph - N/A   Clear
9:35 AM 42.1 °F 39.2 °F 29.8 °F 62% 30.40 in 10.0 mi North 4.6 mph - N/A   Clear
9:55 AM 44.2 °F - 30.9 °F 60% 30.40 in 10.0 mi Calm Calm - N/A   Clear
10:15 AM 46.9 °F - 31.8 °F 56% 30.40 in 10.0 mi Calm Calm - N/A   Clear
10:35 AM 49.1 °F - 32.0 °F 52% 30.40 in 10.0 mi Calm Calm - N/A   Clear
10:55 AM 50.9 °F - 32.7 °F 50% 30.38 in 10.0 mi Calm Calm - N/A   Clear
11:15 AM 52.9 °F - 33.1 °F 47% 30.38 in 10.0 mi Calm Calm - N/A   Clear
11:35 AM 52.9 °F - 32.4 °F 46% 30.37 in 10.0 mi WSW 3.5 mph - N/A   Clear
11:55 AM 54.3 °F - 32.2 °F 43% 30.36 in 10.0 mi Calm Calm - N/A   Clear
12:15 PM 56.1 °F - 31.6 °F 39% 30.35 in 10.0 mi Calm Calm - N/A   Clear
12:35 PM 57.4 °F - 30.7 °F 36% 30.35 in 10.0 mi Calm Calm - N/A   Clear
12:55 PM 57.6 °F - 27.5 °F 32% 30.34 in 10.0 mi Calm Calm - N/A   Clear
1:15 PM 58.6 °F - 27.5 °F 30% 30.34 in 10.0 mi North 5.8 mph - N/A   Clear
1:35 PM 59.5 °F - 28.8 °F 31% 30.33 in 10.0 mi North 8.1 mph - N/A   Clear
1:55 PM 60.1 °F - 27.3 °F 29% 30.33 in 10.0 mi North 6.9 mph - N/A   Clear
2:15 PM 60.6 °F - 24.3 °F 25% 30.32 in 10.0 mi North 8.1 mph - N/A   Clear
2:35 PM 60.8 °F - 23.0 °F 23% 30.32 in 10.0 mi NNW 5.8 mph - N/A   Clear
2:55 PM 60.4 °F - 21.0 °F 22% 30.32 in 10.0 mi North 3.5 mph - N/A   Clear
3:15 PM 61.2 °F - 21.0 °F 21% 30.32 in 10.0 mi NW 6.9 mph - N/A   Clear
3:35 PM 60.3 °F - 20.5 °F 22% 30.32 in 10.0 mi NE 5.8 mph - N/A   Clear
3:55 PM 59.7 °F - 20.1 °F 22% 30.34 in 10.0 mi NNE 5.8 mph - N/A   Clear
4:15 PM 59.0 °F - 20.3 °F 22% 30.34 in 10.0 mi NNE 4.6 mph - N/A   Clear
4:35 PM 57.9 °F - 20.7 °F 24% 30.34 in 10.0 mi Calm Calm - N/A   Clear
4:55 PM 55.8 °F - 19.6 °F 24% 30.34 in 10.0 mi Calm Calm - N/A   Clear
5:15 PM 45.0 °F 43.5 °F 21.2 °F 39% 30.34 in 10.0 mi WSW 3.5 mph - N/A   Clear
5:35 PM 46.0 °F - 22.1 °F 39% 30.35 in 10.0 mi Calm Calm - N/A   Clear
5:55 PM 43.0 °F - 21.6 °F 43% 30.35 in 10.0 mi Calm Calm - N/A   Clear
6:15 PM 42.3 °F - 21.2 °F 43% 30.36 in 10.0 mi Calm Calm - N/A   Clear
6:35 PM 39.0 °F - 20.8 °F 48% 30.37 in 10.0 mi Calm Calm - N/A   Clear
6:55 PM 36.0 °F - 21.4 °F 55% 30.38 in 10.0 mi Calm Calm - N/A   Clear
7:15 PM 36.0 °F - 19.4 °F 51% 30.38 in 10.0 mi Calm Calm - N/A   Clear
7:35 PM 32.7 °F - 19.2 °F 58% 30.38 in 10.0 mi Calm Calm - N/A   Clear
7:55 PM 32.0 °F - 18.9 °F 58% 30.38 in 10.0 mi Calm Calm - N/A   Clear
8:35 PM 31.8 °F 25.4 °F 18.7 °F 58% 30.38 in 10.0 mi WNW 6.9 mph - N/A   Clear
8:55 PM 32.0 °F 24.8 °F 18.9 °F 58% 30.38 in 10.0 mi NW 8.1 mph - N/A   Clear
9:15 PM 34.7 °F 27.5 °F 20.1 °F 55% 30.39 in 10.0 mi WNW 9.2 mph - N/A   Clear
9:35 PM 33.1 °F 26.9 °F 19.8 °F 58% 30.39 in 10.0 mi NW 6.9 mph - N/A   Clear
9:55 PM 29.5 °F - 18.9 °F 65% 30.40 in 10.0 mi Calm Calm - N/A   Clear
10:15 PM 24.1 °F 17.0 °F 16.3 °F 72% 30.40 in 10.0 mi NW 5.8 mph - N/A   Clear
10:35 PM 25.3 °F 18.5 °F 18.0 °F 74% 30.40 in 10.0 mi NW 5.8 mph - N/A   Clear
10:55 PM 24.8 °F 17.9 °F 16.9 °F 72% 30.40 in 10.0 mi NNW 5.8 mph - N/A   Clear
11:15 PM 26.4 °F 18.9 °F 15.6 °F 64% 30.40 in 10.0 mi NW 6.9 mph - N/A   Clear
11:35 PM 26.6 °F 20.0 °F 15.1 °F 62% 30.40 in 10.0 mi WNW 5.8 mph - N/A   Clear
11:55 PM 25.5 °F 17.8 °F 15.3 °F 65% 30.40 in 10.0 mi NW 6.9 mph - N/A   Clear